Home   Weather   49°00'N, 15°20'E   Past weeks
Flag for Czech Republic

Past Weather in 49°00'N, 15°20'E, Czech Republic — Yesterday and Last 2 Weeks

Now
63 °F

Mild.


Feels Like: 63 °F
Forecast: 81 / 58 °F
Wind: 3 mph from East

Location: Kocelovice

Current Time: Jun 19, 2019 at 3:05:58 am

Latest Report: Jun 19, 2019 at 2:00 am


Visibility: 19 mi

Pressure: 29.95 "Hg

Humidity: 77%

Dew Point: 56 °F

Location of 49°00'N, 15°20'ELocation

Past Weather in 49°00'N, 15°20'E — Graph

°F

49°00'N, 15°20'E Temperature Yesterday

Maximum temperature yesterday: 79 °F (at 5:00 pm)
Minimum temperature yesterday: 58 °F (at 5:00 am)
Average temperature yesterday: 68 °F

High & Low Weather Summary for the Past Weeks

 TemperatureHumidityPressure
High89 °F (Jun 12, 4:00 pm)100% (Jun 11, 1:00 am)30.34 "Hg (Jun 11, 1:00 am)
Low47 °F (Jun 9, 6:00 am)25% (Jun 12, 4:00 pm)29.64 "Hg (Jun 12, 4:00 pm)
Average68 °F69%29.95 "Hg
* Reported Jun 4 1:00 am — Jun 19 1:00 am, 49°00'N, 15°20'E. Weather by CustomWeather, © 2019

Note: Actual official high and low records may vary slightly from our data, if they occured in-between our weather recording intervals... More about our weather records

Advertising

49°00'N, 15°20'E Weather History for the Previous 24 Hours

Scroll right to see more
 ConditionsComfort  
Time TempWeatherWind HumidityBarometerVisibility
1:00 am
Wed, Jun 19
63 °FMild.5 mph78%29.95 "Hg19 mi
12:00 am64 °FMild.5 mph76%29.94 "Hg19 mi
11:00 pm
Tue, Jun 18
66 °FMild.5 mph73%29.95 "Hg22 mi
10:00 pm68 °FPassing clouds.5 mph66%29.94 "Hg40 mi
9:00 pm71 °FPartly sunny.3 mph60%29.93 "Hg40 mi
8:00 pm73 °FScattered clouds.3 mph57%29.92 "Hg40 mi
7:00 pm76 °FScattered clouds.5 mph48%29.90 "Hg40 mi
6:00 pm79 °FScattered clouds.5 mph45%29.90 "Hg40 mi
5:00 pm79 °FPassing clouds.3 mph47%29.91 "Hg37 mi
4:00 pm78 °FScattered clouds.5 mph44%29.93 "Hg37 mi
3:00 pm78 °FPassing clouds.5 mph44%29.95 "Hg37 mi
2:00 pm76 °FPassing clouds.5 mph48%29.97 "Hg40 mi
1:00 pm75 °FPassing clouds.6 mph48%30.00 "Hg40 mi
12:00 pm73 °FPassing clouds.7 mph47%30.01 "Hg37 mi
11:00 am73 °FPassing clouds.6 mph55%30.03 "Hg34 mi
10:00 am70 °FPassing clouds.5 mph62%30.05 "Hg31 mi
9:00 am67 °FScattered clouds.5 mph64%30.06 "Hg34 mi
8:00 am65 °FPartly sunny.3 mph69%30.07 "Hg31 mi
7:00 am59 °FCool.2 mph86%30.09 "Hg19 mi
6:00 am58 °FCool.2 mph84%30.09 "Hg22 mi
5:00 am58 °FCool.3 mph86%30.09 "Hg19 mi
4:00 am58 °FCool.5 mph88%30.10 "Hg19 mi
3:00 am59 °FCool.3 mph85%30.10 "Hg19 mi
Weather by CustomWeather, © 2019

See weather overview